Regional Weather Roundup
Issued by NWS

Home | Current Version | Previous Version | Text Only | Print | Product List | Glossary On
Versions: 1 2 3 4 5 6 7 8 9 10 11 12 13 14 15 16 17 18 19 20 21 22 23 24 25 26 27 28 29 30 31 32 33 34 35 36 37 38 39 40 41 42 43 44 45 46 47 48 49 50
000
ASUS43 KDMX 042207
RWRIA

WEATHER ROUNDUP FOR IOWA
NATIONAL WEATHER SERVICE DES MOINES IA
500 PM CDT FRI SEP 04 2015

NOTE: "FAIR" INDICATES FEW OR NO CLOUDS BELOW 12,000 FEET WITH NO
SIGNIFICANT WEATHER AND/OR OBSTRUCTIONS TO VISIBILITY.

* - THESE STATIONS ARE NOT NWS STATIONS...THUS NOT UNDER NWS
QUALITY CONTROL.  THEY ALSO DO NOT REPORT WEATHER SUCH
AS PRECIPITATION OR FOG.

IAZ001>003-012>014-020>022-031>034-043>046-042300-
   NORTHWEST IOWA

CITY           SKY/WX    TMP DP  RH WIND       PRES   REMARKS
CARROLL *      SUNNY     82  73  74 S8        29.91F HX  88
CHEROKEE *     MOSUNNY   84  73  70 S9G18     29.88F HX  91
DENISON *      SUNNY     82  73  74 SE9G15    29.88F HX  88
LE MARS *      SUNNY     82  73  74 SE9       29.86S HX  88
ORANGE CITY *  SUNNY     82  72  69 SE10G17   29.87S HX  87
SHELDON *      SUNNY     82  73  74 SE9       29.88S HX  88
SIOUX CITY     MOSUNNY   85  71  63 SE15G23   29.84S HX  90
SPENCER        CLOUDY    82  72  71 SE8       29.92R HAZE    HX  87
STORM LAKE *   SUNNY     82  73  74 S14       29.91F HX  88
$$

IAZ055>058-069>071-079>083-090>094-042300-
   SOUTHWEST IOWA

CITY           SKY/WX    TMP DP  RH WIND       PRES   REMARKS
ATLANTIC *     SUNNY     84  72  65 S10       29.91S HX  89
AUDUBON *      SUNNY     82  73  74 S7        29.93F HX  88
CLARINDA *       N/A    N/A N/A N/A S14       29.92F
COUNCIL BLFS * SUNNY     88  73  62 SE14G21   29.88S HX  96
CRESTON *      SUNNY     88  72  58 S13       29.96R HX  94
LAMONI         SUNNY     90  69  50 S10       29.95S HX  94
RED OAK *      SUNNY     84  73  70 SE8       29.90S HX  91
SHENANDOAH *   SUNNY     90  68  48 S10G20    29.90S HX  93
$$

IAZ047>049-059>061-072>074-084-042300-
   CENTRAL IOWA

CITY           SKY/WX    TMP DP  RH WIND       PRES   REMARKS
AMES           MOSUNNY   87  69  54 S12       29.94R HX  91
ANKENY *       SUNNY     88  72  58 S12G18    29.93S HX  94
CHARITON *     SUNNY     88  72  58 S8G14     29.96S HX  94
DES MOINES     PTSUNNY   89  68  49 S13       29.93S HX  93
GRINNELL*      MOSUNNY   90  68  48 S9        29.97S HX  93
KNOXVILLE *    MOSUNNY   88  68  51 S12       29.94S HX  91
MARSHALLTOWN   MOSUNNY   87  72  60 S12       29.94S HX  93
PELLA *        SUNNY     91  73  55 S8        29.96S HX 100
PERRY *          N/A     88  72  58 S10       29.93S HX  94
$$

IAZ004>006-015-016-023>025-035-036-042300-
   NORTH CENTRAL IOWA

CITY           SKY/WX    TMP DP  RH WIND       PRES   REMARKS
ALGONA *       SUNNY     84  75  74 S8        29.93S HX  92
CLARION *      SUNNY     84  73  70 S9        29.93S HX  91
ESTHERVILLE    RAIN      77  73  87 S9        29.92R FOG
FORT DODGE *   PTSUNNY   84  72  65 S7        29.93F HX  89
MASON CITY     MOSUNNY   86  74  67 S9        29.95S HX  94
FOREST CITY *  SUNNY     84  70  61 S8        29.93F HX  88
IOWA FALLS *     N/A     90  73  58 S9        29.96S HX  98
$$

IAZ007>011-017>019-026>030-037>042-050>054-066-042300-
   NORTHEAST IOWA

CITY           SKY/WX    TMP DP  RH WIND       PRES   REMARKS
CEDAR RAPIDS   MOSUNNY   88  72  58 SE7       29.96S HX  94
CHARLES CITY * SUNNY     84  75  74 S8G15     29.96S HX  92
CLINTON *      MOSUNNY   90  72  55 CALM      30.00S HX  96
DECORAH *      SUNNY     86  72  62 VRB6G12   29.96S HX  92
DUBUQUE        SUNNY     87  69  54 S9        29.99S HX  91
MONTICELLO *   SUNNY     88  72  58 S6        29.96S HX  94
OELWEIN *      MOSUNNY   88  73  62 S8        29.97S HX  96
WATERLOO       SUNNY     88  71  57 S12       29.94S HX  94
$$

IAZ064-065-067-068-078-042300-
   EAST CENTRAL IOWA

CITY           SKY/WX    TMP DP  RH WIND       PRES   REMARKS
DAVENPORT      SUNNY     89  69  51 SW8       29.97S HX  93
IOWA CITY      SUNNY     90  68  48 S7        29.96S HX  94
MT. PLEASANT * SUNNY     93  64  38 S7        29.96S HX  95
MUSCATINE *    SUNNY     93  66  40 S10       29.95S HX  96
QUAD CITIES    MOSUNNY   92  67  43 S8        29.95F HX  95
$$

IAZ062-063-075>077-085>089-095>099-042300-
   SOUTHEAST IOWA

CITY           SKY/WX    TMP DP  RH WIND       PRES   REMARKS
BURLINGTON     SUNNY     92  68  45 S8        29.96F HX  96
FAIRFIELD *    SUNNY     90  68  48 S9        29.96S HX  93
FORT MADISON * SUNNY     90  68  48 S7        29.97F HX  93
KEOKUK *       SUNNY     91  68  46 S9        29.95F HX  95
OSKALOOSA *      N/A     91  66  43 S7        29.96S HX  94
CENTERVILLE *  SUNNY     88  72  58 S7        29.98S HX  94
OTTUMWA        PTSUNNY   89  71  55 S9        29.94S HX  95
WASHINGTON *     N/A    N/A N/A N/A MISG        N/A
$$

ABBREVIATIONS USED IN REMARKS
   TC - TEMPERATURES IN CELSIUS
  WCI - WIND CHILL INDEX
   HX - HEAT INDEX
  VSB - VISIBILITY
$$




USA.gov is the U.S. government's official web portal to all federal, state and local government web resources and services.